Regional Weather Roundup
Issued by NWS New Orleans/Baton Rouge, LA

Home | Current Version | Previous Version | Text Only | Print | Product List | Glossary On
Versions: 1 2 3 4 5 6 7 8 9 10 11 12 13 14 15 16 17 18 19 20 21 22 23 24 25 26 27 28 29 30 31 32 33 34 35 36 37 38 39 40 41 42 43 44 45 46 47 48 49 50
327
ASUS44 KLIX 170501
RWRLIX
NEW ORLEANS REGIONAL WEATHER ROUNDUP
NATIONAL WEATHER SERVICE NEW ORLEANS LA
1200 AM CDT THU APR 17 2014

NOTE: "FAIR" INDICATES FEW OR NO CLOUDS BELOW 12,000 FEET WITH NO
      SIGNIFICANT WEATHER AND/OR OBSTRUCTIONS TO VISIBILITY.
      SKY/WX - SKY CONDITION AND SIGNIFICANT WEATHER.
      TMP - AIR TEMPERATURE.     DP    - DEWPOINT TEMPERATURE.
      RH  - RELATIVE HUMIDITY.   PRES  - PRESSURE.
      HI  - HEAT INDEX.          WCI   - WIND CHILL INDEX.

*  THESE STATIONS ARE NOT NWS OR FAA STATIONS AND ARE NOT UNDER
   NWS QUALITY CONTROL.

LAZ038-040-048-061>063-065>067-069-170600-
SOUTHEAST LOUISIANA

CITY           SKY/WX    TMP DP  RH WIND       PRES   REMARKS
N.O. AUDUBON   NOT AVBL
N.O. INTL ARPT CLEAR     53  45  74 CALM      30.16F
N.O. LAKEFRONT CLEAR     55  48  77 SE7       30.17S
N.O. DOWNTOWN*   N/A     55  43  62 CALM      30.17S
SLIDELL        CLEAR     45  42  89 CALM      30.17R
BATON ROUGE    CLEAR     51  42  71 SE7       30.16R
BOOTHVILLE     CLOUDY    59  51  75 NE3       30.15F
BELLE CHASSE   PTCLDY    47  44  90 NE3       30.15F
BOGALUSA*        N/A     47  43  87 CALM      30.19R
GALLIANO*      NOT AVBL
NEW ROADS*     NOT AVBL
GONZALES*        N/A     52  47  83 E3        30.16S
HAMMOND*       NOT AVBL
HOUMA*         NOT AVBL
PORT FOURCHON* CLOUDY    61  48  63 E10G20    30.15F

$$

MSZ070-080>082-170600-
SOUTHERN MISSISSIPPI

CITY           SKY/WX    TMP DP  RH WIND       PRES   REMARKS
MCCOMB         CLEAR     47  41  80 S5        30.16S
GULFPORT       CLEAR     50  46  86 N3        30.16S
BILOXI         CLEAR     52  49  89 NE2       30.17R
PASCAGOULA     CLEAR     47  46  97 CALM      30.16F

$$

COASTAL OBSERVATIONS
LAKE AND NEARSHORE STATIONS

STATION/POSITION TIME  TEMP    WIND        PRES    WAVE
                       AIR SEA DIR/SP/G            HT/PER
                 (UTC) (F)     (DEG/KT/KT) (MB)    (FT/S)
PASCAGOULA       0400   59     120/  6/  9 1020.7
WAVELAND YACHT   0400   60 65  140/ 12/ 13 1020.4
GRAND ISLE       0400   60 66  110/  8/ 15 1021.1
SOUTHWEST PASS   0400   62 58  120/ 14/ 17 1020.6
NEW CANAL        0400   53 63   80/  2/  3 1021.8
SHELL BEACH      0400   57 62  120/  6/  9 1021.1

OFFSHORE STATIONS

STATION/POSITION TIME  TEMP    WIND        PRES    WAVE
                       AIR SEA DIR/SP/G            HT/PER
                 (UTC) (F)     (DEG/KT/KT) (MB)    (FT/S)
64 S DAUPHIN ISL 0354   64 69  100/ 21/ 25 1020.7

$$




USA.gov is the U.S. government's official web portal to all federal, state and local government web resources and services.